Location: Waco, TX
(31.5480°N, 97.1670°W)
Time: 18:51:43
(UTC-05:00)

ISS - Pass Details

Date: 20 September 2018
Orbit: 403 x 409 km, 51.6° (Epoch: 24 September)

Event Time Altitude Azimuth Distance (km) Brightness Sun altitude
Rises 04:36:03 0° 323° (NW) 2,322 - -33.7°
Reaches altitude 10° 04:38:14 10° 332° (NNW) 1,458 - -33.3°
Maximum altitude 04:41:17 36° 41° (NE) 653 - -32.7°
Drops below altitude 10° 04:44:20 10° 110° (ESE) 1,449 - -32.1°
Exits shadow 04:46:00 - 118° (ESE) 2,107 0.3 -31.8°
Sets 04:46:30 0° 119° (ESE) 2,304 0.5 -31.7°
